Hourly Data Report for July 10, 2021

CAPE RACE (AUT)
NEWFOUNDLAND
Current Station Operator: ECCC - MSC

46°39'36.000" N
53°04'35.000" W
26.50 m
8401000
71800
WRA

Download Data

Hourly Data (July 2021)
Hourly Data Report for July 10, 2021
TIME
LST
Temp Definition
°C
Dew Point Definition
°C
Rel Hum Definition
%
Precip. Amount Definition
mm

Wind Dir Definition
10's deg

Wind Spd Definition
km/h
Visibility Definition
km
Stn Press Definition
kPa
Hmdx Definition


Wind Chill Definition


Weather Definition


00:30 11.2 LegendMM LegendMM 0.0 21 9   102.10     LegendNANA
01:30 11.0 LegendMM LegendMM 0.0 19 19   102.02     LegendNANA
02:30 11.1 LegendMM LegendMM 0.0 21 17   101.98     LegendNANA
03:30 11.3 LegendMM LegendMM 0.0 20 20   101.91     LegendNANA
04:30 11.3 LegendMM LegendMM 0.0 19 17   101.85     LegendNANA
05:30 11.3 LegendMM LegendMM 0.0 22 13   101.80     LegendNANA
06:30 11.4 LegendMM LegendMM 0.0 21 15   101.73     LegendNANA
07:30 11.4 LegendMM LegendMM 0.0 22 13   101.65     LegendNANA
08:30 11.2 LegendMM LegendMM 0.0 20 17   101.56     LegendNANA
09:30 13.0 LegendMM LegendMM 0.0 21 19   101.51     LegendNANA
10:30 12.5 LegendMM LegendMM 0.0 20 21   101.41     LegendNANA
11:30 13.5 LegendMM LegendMM 0.0 21 21   101.34     LegendNANA
12:30 13.4 LegendMM LegendMM 0.0 21 22   101.24     LegendNANA
13:30 12.8 LegendMM LegendMM 0.0 21 31   101.16     LegendNANA
14:30 13.1 LegendMM LegendMM 0.0 21 32   101.10     LegendNANA
15:30 14.1 LegendMM LegendMM 0.0 21 36   101.04     LegendNANA
16:30 13.9 LegendMM LegendMM 0.0 22 39   100.99     LegendNANA
17:30 12.5 LegendMM LegendMM 0.2 22 37   100.97     LegendNANA
18:30 12.4 LegendMM LegendMM 0.0 23 37   101.06     LegendNANA
19:30 12.8 LegendMM LegendMM 0.0 24 45   101.14     LegendNANA
20:30 12.3 LegendMM LegendMM 0.0 25 32   101.29     LegendNANA
21:30 11.8 LegendMM LegendMM 0.0 25 40   101.35     LegendNANA
22:30 11.3 LegendMM LegendMM 0.0 25 35   101.42     LegendNANA
23:30 11.0 LegendMM LegendMM 0.0 26 34   101.49     LegendNANA

Notes on Data Quality.

Legend

  • E = Estimated
  • M = Missing
  • NA = Not Available*
  • [empty] = Indicates an unobserved value
Date modified: